This demonstration page uses our WeatherBlox Daily Observations layout. Learn more.

Left ArrowRight Arrow

47.50024, -111.30081

Hourly Observations for January 6, 2016

Temp ( °F °C ) Dew Point ( °F °C ) Humidity (%) Winds ( mph kmh ) Pressure ( in mb ) Visibility ( mi km ) Precip ( " mm )
12:53 am 00:53 Clear with Mist and Fog 13 -10.6 11 -11.7 92 92 ENE 5 7 29.91 1013 5 8 0.00 0.00
1:53 am 01:53 Clear with Mist and Fog 13 -10.6 10 -12.2 88 88 E 5 7 29.91 1013 6 10 0.00 0.00
2:47 am 02:47 Clear with Mist and Fog 10 -12 7 -14 85 85 Calm 30.03 1017 2 3 0.00 0.00
2:53 am 02:53 Clear with Mist and Fog 11 -11.7 7 -13.9 84 84 Calm 29.93 1014 1 2 0.00 0.00
3:12 am 03:12 Clear with Freezing Fog 12 -11 10 -12 92 92 Calm 30.00 1016 0 0 0.00 0.00
3:35 am 03:35 Mostly Cloudy with Freezing Fog 9 -12.8 8 -13.3 96 96 W 5 7 30.03 1017 0 0 0.00 0.00
3:44 am 03:44 Clear with Freezing Fog 9 -13 9 -13 100 100 W 3 6 30.03 1017 1 1 0.00 0.00
3:48 am 03:48 Clear with Mist and Fog 10 -12 9 -13 92 92 NW 3 6 30.03 1017 2 2 0.00 0.00
3:53 am 03:53 Clear with Mist and Fog 10 -12.2 9 -12.8 95 95 WNW 5 7 29.93 1014 3 4 0.00 0.00
4:26 am 04:26 Clear with Mist and Fog 12 -11.1 9 -12.8 87 87 Calm 30.00 1016 2 3 0.00 0.00
4:33 am 04:33 Clear with Mist and Fog 12 -11.1 10 -12.2 92 92 Calm 30.00 1016 3 4 0.00 0.00
4:40 am 04:40 Clear with Mist and Fog 10 -12 9 -13 92 92 Calm 30.03 1017 4 6 0.00 0.00
4:53 am 04:53 Clear with Mist and Fog 12 -11.1 9 -12.8 87 87 Calm 29.93 1014 4 6 0.00 0.00
5:34 am 05:34 Clear with Mist and Fog 10 -12 9 -13 92 92 Calm 30.03 1017 1 2 0.00 0.00
5:43 am 05:43 Clear with Mist and Fog 11 -11.7 8 -13.3 88 88 Calm 30.03 1017 1 1 0.00 0.00
5:47 am 05:47 Clear with Mist and Fog 12 -11 10 -12 92 92 Calm 30.00 1016 2 3 0.00 0.00
5:53 am 05:53 Clear with Mist and Fog 12 -11.1 9 -12.8 87 87 Calm 29.93 1014 3 5 0.00 0.00
6:44 am 06:44 Mostly Clear with Mist and Fog 10 -12 9 -13 92 92 N 3 6 30.03 1017 2 3 0.00 0.00
6:53 am 06:53 Clear with Mist and Fog 8 -13.3 6 -14.4 92 92 Calm 29.95 1014 1 2 0.00 0.00
7:14 am 07:14 Clear with Mist and Fog 12 -11 9 -13 85 85 Calm 30.00 1016 2 3 0.00 0.00
7:33 am 07:33 Clear with Mist and Fog 13 -10.6 11 -11.7 92 92 NNW 3 6 30.00 1016 2 3 0.00 0.00
7:44 am 07:44 Clear with Mist and Fog 10 -12 10 -12 100 100 NW 3 6 30.03 1017 1 1 0.00 0.00
7:53 am 07:53 Clear with Freezing Fog 12 -11.1 8 -13.3 84 84 Calm 29.93 1014 0 0 0.00 0.00
8:32 am 08:32 Mostly Cloudy with Freezing Fog 12 -11 10 -12 92 92 Calm 30.00 1016 5 8 0.00 0.00
8:40 am 08:40 Partly Cloudy with Freezing Fog 12 -11 10 -12 92 92 Calm 30.00 1016 5 8 0.00 0.00
8:53 am 08:53 Partly Cloudy with Freezing Fog 12 -11.1 9 -12.8 87 87 Calm 29.95 1014 0 0 0.00 0.00
9:06 am 09:06 Sunny with Mist and Fog 16 -9 12 -11 86 86 Calm 29.97 1015 1 1 0.00 0.00
9:18 am 09:18 Sunny with Mist and Fog 16 -9 12 -11 86 86 Calm 29.97 1015 2 2 0.00 0.00
9:25 am 09:25 Partly Cloudy with Mist and Fog 15 -9.4 12 -11.1 88 88 Calm 29.97 1015 3 5 0.00 0.00
9:53 am 09:53 Cloudy with Mist and Fog 19 -7.2 17 -8.3 92 92 Calm 29.95 1014 5 8 0.00 0.00
10:53 am 10:53 Sunny with Mist and Fog 21 -6.1 18 -7.8 88 88 NE 3 6 29.95 1014 6 10 0.00 0.00
11:53 am 11:53 Hazy 21 -6.1 16 -8.9 81 81 NNW 3 6 29.93 1013 6 10 0.00 0.00
12:53 pm 12:53 Hazy 22 -5.6 15 -9.4 75 75 NE 5 7 29.91 1013 6 10 0.00 0.00
1:53 pm 13:53 Hazy 23 -5 16 -8.9 74 74 E 6 9 29.90 1013 6 10 0.00 0.00
2:53 pm 14:53 Sunny 22 -5.6 16 -8.9 78 78 E 6 9 29.90 1013 7 11 0.00 0.00
3:53 pm 15:53 Hazy 20 -6.7 15 -9.4 81 81 E 5 7 29.93 1013 6 10 0.00 0.00
4:53 pm 16:53 Clear with Mist and Fog 16 -8.9 13 -10.6 88 88 NE 7 11 29.94 1014 6 10 0.00 0.00
5:53 pm 17:53 Mostly Clear 15 -9.4 12 -11.1 88 88 NE 3 6 29.96 1014 7 11 0.00 0.00
6:53 pm 18:53 Cloudy 16 -8.9 13 -10.6 88 88 ENE 6 9 29.98 1015 7 11 0.00 0.00
7:53 pm 19:53 Cloudy 17 -8.3 14 -10 88 88 NE 5 7 29.97 1015 8 13 0.00 0.00
8:51 pm 20:51 Cloudy 18 -8 12 -11 79 79 Calm 30.00 1016 7 11 0.00 0.00
8:53 pm 20:53 Cloudy 17 -8.3 13 -10.6 84 84 Calm 29.98 1015 7 11 0.00 0.00
9:38 pm 21:38 Cloudy 18 -8 14 -10 86 86 Calm 30.03 1017 8 13 0.00 0.00
9:53 pm 21:53 Cloudy 17 -8.3 14 -10 88 88 N 3 6 29.99 1016 8 13 0.00 0.00
10:53 pm 22:53 Cloudy 16 -8.9 13 -10.6 88 88 N 6 9 30.00 1016 8 13 0.00 0.00
11:53 pm 23:53 Cloudy with Mist and Fog 16 -8.9 14 -10 92 92 ENE 3 6 30.01 1016 5 8 0.00 0.00

Powered by AerisWeather